Weather History for KSLB - April, 2014

Change the Weather History Date:

Saturday, April 26, 2014

  Actual Average Record
Temperature  
Mean Temperature 56 °F -  
Max Temperature 68 °F 63 °F 84 °F (2001)
Min Temperature 44 °F 42 °F 32 °F (2008)
Degree Days  
Heating Degree Days 9    
Growing Degree Days 6 (Base 50)    
Moisture  
Dew Point 40 °F    
Average Humidity 55    
Maximum Humidity 87    
Minimum Humidity 37    
Precipitation  
Precipitation 0.00 in - - ()
Sea Level Pressure  
Sea Level Pressure 29.75 in    
Wind  
Wind Speed 18 mph (East)    
Max Wind Speed 34 mph    
Max Gust Speed 45 mph    
Visibility 10 miles    
Events      
Averages and records for this station are not official NWS values.
T = Trace of Precipitation, MM = Missing Value Source: NWS Daily Summary

Daily Weather History Graph

Daily Weather History Graph

Search for Another Location

Airport or City:

Trip Planner

Search our weather history database for the weather conditions in past years. The results will help you decide how hot, cold, wet, or windy it might be!

Date:

Astronomy

Apr. 26, 2014 Rise Set
Actual Time 6:22 AM CDT 8:15 PM CDT
Civil Twilight 5:52 AM CDT 8:45 PM CDT
Nautical Twilight 5:15 AM CDT 9:22 PM CDT
Astronomical Twilight 4:35 AM CDT 10:03 PM CDT
Moon 4:51 AM CDT (4/26) 5:41 PM CDT (4/26)
Length of Visible Light 14h 53m
Length of Day
13h 52m
Waning Crescent, 8% of the Moon is Illuminated
Apr 26
Waning Crescent
Apr 29
New
May 6
First Quarter
May 14
Full
May 21
Last Quarter

Hourly Weather History & Observations

Time (CDT) Temp. Windchill Dew Point Humidity Pressure Visibility Wind Dir Wind Speed Gust Speed Precip Events Conditions
12:15 AM 51.8 °F - 35.6 °F 54% 29.83 in 10.0 mi ENE 8.1 mph - N/A   Clear
12:35 AM 50.0 °F - 35.6 °F 58% 29.84 in 10.0 mi East 8.1 mph - N/A   Clear
12:55 AM 48.2 °F - 37.4 °F 66% 29.83 in 10.0 mi East 9.2 mph - N/A   Clear
1:15 AM 51.8 °F - 37.4 °F 58% 29.83 in 10.0 mi East 10.4 mph - N/A   Clear
1:35 AM 51.8 °F - 37.4 °F 58% 29.82 in 10.0 mi ESE 9.2 mph - N/A   Clear
1:55 AM 50.0 °F - 37.4 °F 62% 29.82 in 10.0 mi East 10.4 mph - N/A   Clear
2:15 AM 50.0 °F - 39.2 °F 66% 29.83 in 10.0 mi East 11.5 mph - N/A   Clear
2:35 AM 50.0 °F - 37.4 °F 62% 29.82 in 10.0 mi East 10.4 mph - N/A   Clear
2:55 AM 51.8 °F - 37.4 °F 58% 29.82 in 10.0 mi ESE 10.4 mph - N/A   Clear
3:15 AM 50.0 °F - 37.4 °F 62% 29.82 in 10.0 mi ENE 9.2 mph 15.0 mph N/A   Clear
3:35 AM 48.2 °F - 41.0 °F 76% 29.82 in 10.0 mi NE 13.8 mph - N/A   Clear
3:55 AM 48.2 °F - 41.0 °F 76% 29.82 in 10.0 mi ENE 11.5 mph - N/A   Clear
4:15 AM 46.4 °F 39.8 °F 39.2 °F 76% 29.82 in 10.0 mi ENE 16.1 mph - N/A   Clear
4:35 AM 46.4 °F 40.1 °F 39.2 °F 76% 29.83 in 10.0 mi ENE 15.0 mph - N/A   Clear
4:55 AM 46.4 °F 39.5 °F 39.2 °F 76% 29.82 in 10.0 mi ENE 17.3 mph - N/A   Clear
5:15 AM 46.4 °F 39.5 °F 37.4 °F 71% 29.82 in 10.0 mi ENE 17.3 mph - N/A   Clear
5:35 AM 44.6 °F 37.4 °F 39.2 °F 81% 29.82 in 10.0 mi ENE 16.1 mph - N/A   Clear
5:55 AM 44.6 °F 37.4 °F 39.2 °F 81% 29.82 in 10.0 mi ENE 16.1 mph - N/A   Clear
6:15 AM 44.6 °F 37.2 °F 39.2 °F 81% 29.83 in 10.0 mi ENE 17.3 mph - N/A   Clear
6:35 AM 44.6 °F 36.6 °F 39.2 °F 81% 29.83 in 10.0 mi East 19.6 mph - N/A   Clear
6:55 AM 44.6 °F 35.9 °F 39.2 °F 81% 29.82 in 10.0 mi East 23.0 mph - N/A   Clear
7:15 AM 44.6 °F 36.4 °F 39.2 °F 81% 29.83 in 10.0 mi East 20.7 mph 27.6 mph N/A   Clear
7:35 AM 44.6 °F 37.4 °F 41.0 °F 87% 29.84 in 10.0 mi East 16.1 mph - N/A   Clear
7:55 AM 46.4 °F 39.2 °F 41.0 °F 81% 29.83 in 10.0 mi East 18.4 mph - N/A   Clear
8:15 AM 48.2 °F - 41.0 °F 76% 29.83 in 10.0 mi East 18.4 mph 26.5 mph N/A   Clear
8:35 AM 50.0 °F - 41.0 °F 71% 29.85 in 10.0 mi East 17.3 mph 24.2 mph N/A   Clear
9:15 AM 51.8 °F - 41.0 °F 67% 29.83 in 10.0 mi East 21.9 mph - N/A   Clear
9:35 AM 53.6 °F - 41.0 °F 62% 29.82 in 10.0 mi East 26.5 mph - N/A   Clear
9:55 AM 55.4 °F - 41.0 °F 58% 29.82 in 10.0 mi East 24.2 mph 32.2 mph N/A   Clear
10:15 AM 55.4 °F - 41.0 °F 58% 29.81 in 10.0 mi East 26.5 mph 34.5 mph N/A   Clear
10:35 AM 57.2 °F - 41.0 °F 55% 29.82 in 10.0 mi East 25.3 mph 33.4 mph N/A   Clear
10:55 AM 59.0 °F - 41.0 °F 51% 29.82 in 10.0 mi East 27.6 mph 34.5 mph N/A   Clear
11:15 AM 60.8 °F - 39.2 °F 45% 29.81 in 10.0 mi East 26.5 mph 38.0 mph N/A   Clear
11:35 AM 60.8 °F - 39.2 °F 45% 29.81 in 10.0 mi East 27.6 mph 39.1 mph N/A   Clear
11:55 AM 62.6 °F - 39.2 °F 42% 29.80 in 10.0 mi East 31.1 mph 39.1 mph N/A   Clear
12:15 PM 64.4 °F - 39.2 °F 40% 29.79 in 10.0 mi East 29.9 mph 39.1 mph N/A   Clear
12:35 PM 64.4 °F - 39.2 °F 40% 29.77 in 10.0 mi East 32.2 mph 40.3 mph N/A   Clear
12:55 PM 66.2 °F - 39.2 °F 37% 29.76 in 10.0 mi East 28.8 mph 39.1 mph N/A   Clear
1:15 PM 66.2 °F - 39.2 °F 37% 29.74 in 10.0 mi East 34.5 mph 43.7 mph N/A   Clear
1:35 PM 66.2 °F - 39.2 °F 37% 29.74 in 10.0 mi East 33.4 mph 44.9 mph N/A   Clear
1:55 PM 66.2 °F - 39.2 °F 37% 29.73 in 10.0 mi East 31.1 mph 40.3 mph N/A   Clear
2:15 PM 68.0 °F - 41.0 °F 37% 29.73 in 10.0 mi East 33.4 mph 41.4 mph N/A   Clear
2:35 PM 68.0 °F - 41.0 °F 37% 29.72 in 10.0 mi East 31.1 mph 40.3 mph N/A   Clear
2:55 PM 68.0 °F - 41.0 °F 37% 29.71 in 10.0 mi East 32.2 mph 41.4 mph N/A   Clear
3:15 PM 68.0 °F - 41.0 °F 37% 29.71 in 10.0 mi ESE 27.6 mph 40.3 mph N/A   Clear
3:35 PM 68.0 °F - 41.0 °F 37% 29.70 in 10.0 mi East 31.1 mph 40.3 mph N/A   Mostly Cloudy
3:55 PM 66.2 °F - 41.0 °F 40% 29.69 in 10.0 mi ESE 29.9 mph 39.1 mph N/A   Mostly Cloudy
4:15 PM 66.2 °F - 41.0 °F 40% 29.69 in 10.0 mi East 31.1 mph 40.3 mph N/A   Overcast
4:35 PM 68.0 °F - 41.0 °F 37% 29.67 in 10.0 mi ESE 32.2 mph 42.6 mph N/A   Overcast
4:55 PM 68.0 °F - 42.8 °F 40% 29.66 in 10.0 mi ESE 29.9 mph 41.4 mph N/A   Partly Cloudy
5:15 PM 68.0 °F - 42.8 °F 40% 29.65 in 10.0 mi ESE 31.1 mph 41.4 mph N/A   Clear
5:35 PM 68.0 °F - 42.8 °F 40% 29.64 in 10.0 mi ESE 33.4 mph 42.6 mph N/A   Clear
5:55 PM 66.2 °F - 42.8 °F 43% 29.64 in 10.0 mi ESE 28.8 mph 43.7 mph N/A   Clear
6:15 PM 66.2 °F - 42.8 °F 43% 29.63 in 10.0 mi ESE 27.6 mph 39.1 mph N/A   Clear
6:35 PM 66.2 °F - 42.8 °F 43% 29.63 in 10.0 mi ESE 23.0 mph 36.8 mph N/A   Clear
6:55 PM 66.2 °F - 42.8 °F 43% 29.63 in 10.0 mi ESE 28.8 mph 38.0 mph N/A   Clear
7:15 PM 66.2 °F - 42.8 °F 43% 29.63 in 10.0 mi ESE 23.0 mph 35.7 mph N/A   Clear
7:35 PM 64.4 °F - 42.8 °F 45% 29.63 in 10.0 mi ESE 24.2 mph 35.7 mph N/A   Partly Cloudy
7:55 PM 64.4 °F - 42.8 °F 45% 29.64 in 10.0 mi ESE 23.0 mph 32.2 mph N/A   Scattered Clouds
8:15 PM 62.6 °F - 44.6 °F 52% 29.65 in 10.0 mi ESE 20.7 mph 32.2 mph N/A   Clear
8:35 PM 62.6 °F - 42.8 °F 48% 29.65 in 10.0 mi East 25.3 mph 34.5 mph N/A   Mostly Cloudy
8:55 PM 62.6 °F - 42.8 °F 48% 29.65 in 10.0 mi ESE 25.3 mph 33.4 mph N/A   Overcast
9:15 PM 62.6 °F - 42.8 °F 48% 29.65 in 10.0 mi ESE 20.7 mph 33.4 mph N/A   Overcast
9:35 PM 60.8 °F - 42.8 °F 52% 29.65 in 10.0 mi ESE 20.7 mph 32.2 mph N/A   Overcast
9:55 PM 60.8 °F - 42.8 °F 52% 29.66 in 10.0 mi ESE 25.3 mph 34.5 mph N/A   Overcast
10:15 PM 60.8 °F - 42.8 °F 52% 29.66 in 10.0 mi ESE 27.6 mph 35.7 mph N/A   Overcast
10:35 PM 60.8 °F - 42.8 °F 52% 29.66 in 10.0 mi ESE 27.6 mph 38.0 mph N/A   Overcast
10:55 PM 59.0 °F - 41.0 °F 51% 29.65 in 10.0 mi ESE 28.8 mph 36.8 mph N/A   Overcast
11:15 PM 57.2 °F - 41.0 °F 55% 29.65 in 10.0 mi ESE 28.8 mph 38.0 mph N/A   Overcast
11:35 PM 57.2 °F - 39.2 °F 51% 29.65 in 10.0 mi ESE 27.6 mph 38.0 mph N/A   Overcast
11:55 PM 57.2 °F - 39.2 °F 51% 29.65 in 10.0 mi East 25.3 mph 34.5 mph N/A   Overcast